Location: Unspecified
(0.0000°N, 0.0000°E)
Time: 19:43:09

Vanguard 2 - Pass Details

Date: 16 December 2017
Orbit: 553 x 2939 km, 32.9° (Epoch: 20 March)

Event Time Altitude Azimuth Distance (km) Brightness Sun altitude
Rises 02:23:02 0° 245° (WSW) 4,242 - -47.3°
Reaches altitude 10° 02:27:29 10° 222° (SW) 3,737 - -46.4°
Exits shadow 02:29:34 13° 209° (SSW) 3,695 11.0 -45.9°
Maximum altitude 02:32:37 15° 191° (S) 3,855 11.2 -45.3°
Drops below altitude 10° 02:38:59 10° 161° (SSE) 4,787 12.0 -44.0°
Sets 02:46:25 0° 141° (SE) 6,300 12.9 -42.4°
